Hourly Data Report for September 23, 2016

SHEARWATER RCS
NOVA SCOTIA

44°37'47.000" N
63°30'48.000" W
24.00 m
8205092
71264
AAW

Download Data

Hourly Data (September 2016)
Hourly Data Report for September 23, 2016
TIME Temp Definition
°C
Dew Point Definition
°C
Rel Hum Definition
%
Wind Dir Definition
10's deg

Wind Spd Definition
km/h
Visibility Definition
km
Stn Press Definition
kPa
Hmdx Definition


Wind Chill Definition


Weather Definition


00:00 11.6 8.8 83 0 1   101.69     LegendNANA
01:00 12.1 9.4 84 0 1   101.71     LegendNANA
02:00 11.0 8.7 86 4 1   101.66     LegendNANA
03:00 11.6 9.3 86   0   101.63     LegendNANA
04:00 11.1 9.0 87   0   101.59     LegendNANA
05:00 12.2 10.4 89 5 6   101.54     LegendNANA
06:00 11.3 9.8 91 30 2   101.54     LegendNANA
07:00 13.0 11.2 89   0   101.51     LegendNANA
08:00 15.5 12.4 82 16 4   101.46     LegendNANA
09:00 16.7 13.6 82 18 4   101.47     LegendNANA
10:00 17.6 13.9 79 18 10   101.42     LegendNANA
11:00 18.3 14.2 77 18 17   101.37     LegendNANA
12:00 17.8 13.6 77 18 20   101.26     LegendNANA
13:00 17.4 15.3 88 18 15   101.12     LegendNANA
14:00 17.9 14.0 78 19 17   101.00     LegendNANA
15:00 17.4 13.6 79 18 16   100.88     LegendNANA
16:00 17.1 14.3 84 20 13   100.84     LegendNANA
17:00 17.1 13.8 81 23 12   100.84     LegendNANA
18:00 16.8 13.8 83 25 10   100.81     LegendNANA
19:00 16.3 14.5 89 30 11   100.85     LegendNANA
20:00 14.1 11.7 86 33 18   100.95     LegendNANA
21:00 13.3 10.9 86 34 18   100.97     LegendNANA
22:00 12.6 9.7 83 34 18   101.04     LegendNANA
23:00 12.2 8.8 80 34 21   101.04     LegendNANA

Notes on Data Quality.

Legend

  • E = Estimated
  • M = Missing
  • NA = Not Available*
  • [empty] = Indicates an unobserved value
Date modified: